Aérodrome :
LOGIN :

S'inscrire | Disclaimer

   EN    FR    IT 

 










Légende :    VFR   VFR Marginal   IFR   IFR Intensif   IFR Très Intensif
Visi : 
Plafond : 
>= 8 km
>= 3000ft
5 à 8 km
1000 à 3000 ft
1500m à 5 km
500 à 1000 ft
800 à 1500m
200 à 500 ft
< 800m
< 200 ft
Symboles :   Orages  Brouillard  Fortes neiges  Fortes précipitations  Vent > 20 kt
SIGMETs :   Divers  Orages  Givrage  Turbulence  Onde Orograph.  Cendres Volcan.







- Altitude de l'aérodrome : 1197 ft
- Code IATA : SPM


ETAD - Spangdahlem Ab

DERNIER METAR :
  • 210256Z AUTO 00000KT 9999 CLR 01/M01 A3051 RMK AO2 SLP332 T00111013 57006 $

METARs EXPIRÉS :
  • 210156Z AUTO 11003KT 9999 CLR 03/M01 A3052 RMK AO2 SLP333 T00251006 $
  • 210056Z AUTO 00000KT 9999 CLR 03/M01 A3053 RMK AO2 SLP339 T00291007 $

TAF TAF ETAD
Valide du 20 à 21h jusqu'au 22 à 03h UTC


202056Z 2021/2203 VRB03KT 9999 FEW040 FEW120 QNH3050INS
BECMG 2106/2107 VRB06KT 9999 SKC QNH3054INS TX13/2114Z TN01/2106Z LAST NO AMDS AFT 2021 NEXT 2105
Pas de NOTAMs connus pour ce terrain.



MET'MAP, la Météo Aéronautique d'un coup d'oeil ! - Copyright ORBIFLY Décembre 2007 - Disclaimer

ORBIFLY MET'MAP TEAM :

Programmation & Développement : Alexandra Zaïnal
Conception & Développement : Baudouin d'Aumeries
Co-Programmation & Développement : Marc-Olivier Méhu
Soutien technique & logistique : Manuel Goepfert

Contact : metmap@orbifly.com




SOURCES & CREDITS :

   NOAA